Regional Weather Roundup
Issued by NWS

Home | Current Version | Previous Version | Text Only | Print | Product List | Glossary Off
Versions: 1 2 3 4 5 6 7 8 9 10 11 12 13 14 15 16 17 18 19 20 21 22 23 24 25 26 27 28 29 30 31 32 33 34 35 36 37 38 39 40 41 42 43 44 45 46 47 48 49 50

000
ASUS43 KMPX 131710
RWRMN
WEATHER ROUNDUP FOR MINNESOTA
NATIONAL WEATHER SERVICE TWIN CITIES/CHANHASSEN MN
1100 AM CST WED DEC 13 2017


NOTE: "FAIR" INDICATES FEW OR NO CLOUDS BELOW 12,000 FEET WITH NO
SIGNIFICANT WEATHER AND/OR OBSTRUCTIONS TO VISIBILITY. N/A MEANS
CURRENT SKY AND/OR WEATHER CONDITIONS ARE NOT AVAILABLE.

MNZ060>063-068>070-131800-
   Twin Cities Metro

CITY           SKY/WX    TMP DP  RH WIND       PRES   REMARKS
TWIN CITIES    CLOUDY    27  23  85 N20G31    29.54R WCI  13
ST PAUL        CLOUDY    25  21  85 NW18G28   29.55R WCI  11
CRYSTAL        CLOUDY    25  17  72 N16G32    29.55R WCI  12
BLAINE           N/A     27  21  80 NW20G29   29.54R WCI  13
LAKEVILLE      CLOUDY    27  25  93 NW16      29.52R WCI  14
EDEN PRAIRIE   CLOUDY    28  21  75 NW17G31   29.53R WCI  16
SOUTH ST PAUL  CLOUDY    27  22  82 N14G24    29.53R WCI  15
LAKE ELMO      CLOUDY    25  21  86 NW14G24   29.53R WCI  13
$$
MNZ001>005-007-008-013>017-022>024-027-028-131800-
   Northwest Minnesota

CITY           SKY/WX    TMP DP  RH WIND       PRES   REMARKS
BEMIDJI        CLOUDY    17  14  88 NW12      29.68R WCI   4
HALLOCK        CLOUDY    23  19  86 N13G21    29.80R WCI  11
ROSEAU         LGT SNOW  18  12  79 N12       29.76R WCI   5
WARROAD        FLURRIES  16  10  79 N9        29.76R WCI   4
THIEF RVR FALL MIX PCPN  20  17  88 N20       29.75R FOG     WCI   4
CROOKSTON      CLOUDY    23  21  93 N20       29.78R WCI   8
FOSSTON        CLOUDY    18  16  93 N17       29.73R FOG     WCI   2
DETROIT LAKES  CLOUDY    23  21  93 N20G31    29.71R WCI   8
MOORHEAD       CLOUDY    27  23  86 N28       29.77R WCI  11
PARK RAPIDS    CLOUDY    20  16  84 N17G25    29.65R WCI   5
MAHNOMEN       CLOUDY    21  19  92 N16       29.72R WCI   7
$$
MNZ006-009>011-018-025>026-131800-
   North Central Minnesota

CITY           SKY/WX    TMP DP  RH WIND       PRES   REMARKS
BAUDETTE       CLOUDY    16  10  77 N7        29.71R WCI   6
FLAG ISLAND    CLOUDY    12   9  85 N10       29.75R WCI  -1
INTL FALLS     CLOUDY    16  10  77 NE7       29.69R HAZE    WCI   6
WASKISH        FLURRIES  16  12  86 NW9       29.70R WCI   4
BIG FORK       FLURRIES  19  14  79 VRB6      29.64R WCI  11
LONGVILLE      CLOUDY    18  16  93 N7        29.65R WCI   8
GRAND RAPIDS   FLURRIES  18  15  88 NW10      29.63R WCI   6
CRANE LAKE     LGT SNOW  16  12  86 CALM      29.68S
ORR            LGT SNOW  16  10  79 NE3       29.61R
COOK           LGT SNOW  18  12  79 NE3       29.62R
WALKER         CLOUDY    17  14  88 NW9       29.66R WCI   5
$$
MNZ012-019>021-037-131800-
   Northeast Minnesota

CITY           SKY/WX    TMP DP  RH WIND       PRES   REMARKS
DULUTH         LGT SNOW  21  18  88 NE14      29.54R FOG     WCI   8
ELY            LGT SNOW  16  12  86 NE7       29.61R WCI   6
HIBBING        LGT SNOW  19  15  84 N9        29.60R FOG     WCI   8
EVELETH        LGT SNOW  19  13  80 N9        29.59S WCI   7
DULUTH HARBOR  LGT SNOW  27  25  93 NE25G33   29.59R WCI  11
TWO HARBORS    LGT SNOW  27  21  80 NE13G18   29.57R WCI  16
GRAND MARAIS     N/A     23  19  85 NE16G22   29.64R WCI  10
G MARAIS ARPRT LGT SNOW  16  10  79 N10       29.57S VSB 3/4 WCI   3
$$
MNZ029>031-032-039>041-046>048-054>057-064-131800-
   West Central Minnesota

CITY           SKY/WX    TMP DP  RH WIND       PRES   REMARKS
FERGUS FALLS   CLOUDY    27  25  93 N17G37    29.75R WCI  14
WHEATON        CLOUDY    30  25  80 NW25G33   29.78R WCI  16
MORRIS         CLOUDY    28  25  86 NW25G31   29.70R WCI  14
ALEXANDRIA     CLOUDY    26  22  84 NW17G30   29.66R WCI  13
ELBOW LAKE     CLOUDY    26  24  90 NW21G32   29.72R WCI  12
WADENA         CLOUDY    23  19  86 NW17G25   29.65R WCI   9
GLENWOOD       PTSUNNY   27  23  86 NW22G35   29.65R WCI  12
APPLETON       CLOUDY    34  27  75 N18G30    29.72R WCI  23
BENSON         CLOUDY    28  25  86 N30G40    29.69R WCI  13
ORTONVILLE     CLOUDY    32  27  80 N33G41    29.73R WCI  17
MADISON        CLOUDY    36  28  75 N30G37    29.74R
WILLMAR        CLOUDY    30  25  80 NW25G38   29.65R WCI  16
$$
MNZ033>034-036-042>043-049>051-058-059-131800-
   Central Minnesota

CITY           SKY/WX    TMP DP  RH WIND       PRES   REMARKS
ST CLOUD       CLOUDY    24  19  81 N18G24    29.60R WCI  10
SAUK CENTRE    CLOUDY    25  22  87 NW24G31   29.63R WCI  10
PAYNESVILLE    CLOUDY    28  26  89 NW18      29.62R WCI  16
AITKIN         CLOUDY    18  14  86 NW13      29.60R WCI   4
PINE RIVER     CLOUDY    18  14  86 N12G21    29.68R WCI   5
BRAINERD       CLOUDY    20  15  81 N17G26    29.63R WCI   5
STAPLES        CLOUDY    21  19  93 NW16      29.64R WCI   7
LONG PRAIRIE   CLOUDY    27  23  86 W16G29    29.62R FOG     WCI  14
LITTLE FALLS   CLOUDY    27  19  74 N15G22    29.62R WCI  15
LITCHFIELD     CLOUDY    30  27  86 NW21G29   29.61R WCI  17
BUFFALO        CLOUDY    27  22  82 N16G24    29.59R WCI  14
MAPLE LAKE     CLOUDY    28  24  87 N16G26    29.60R WCI  15
HUTCHINSON     CLOUDY    31  27  84 NW30G37   29.60R WCI  16
$$
MNZ037-044-045-052-053-131800-
   East Central Minnesota

CITY           SKY/WX    TMP DP  RH WIND       PRES   REMARKS
PRINCETON      CLOUDY    25  18  74 NW18G26   29.58R WCI  11
MORA           CLOUDY    19  16  86 N10G17    29.58R WCI   8
CAMBRIDGE      CLOUDY    23  16  74 NW12G23   29.56R WCI  12
RUSH CITY      CLOUDY    21  16  81 N12       29.55R WCI   9
MOOSE LAKE     CLOUDY    23  18  80 N10G20    29.54R WCI  12
HINCKLEY       CLOUDY    23  19  86 N10G17    29.56R WCI  12
CLOQUET        CLOUDY    21  18  86 N7        29.55R WCI  13
MCGREGOR       CLOUDY    21  18  86 NW12      29.59R WCI   9
$$
MNZ071>073-080-081-089-090-097-098-131800-
   Southwest Minnesota

CITY           SKY/WX    TMP DP  RH WIND       PRES   REMARKS
MONTEVIDEO     CLOUDY    32  28  86 N28G35    29.70R WCI  18
GRANITE FALLS  CLOUDY    34  28  78 NW29G39   29.71R WCI  21
CANBY          CLOUDY    34  30  86 NW21G32   29.75R WCI  22
MARSHALL       CLOUDY    32  28  85 N35G40    29.69R WCI  17
REDWOOD FALLS  CLOUDY    32  24  72 NW23G39   29.66R WCI  19
OLIVIA         CLOUDY    30  27  86 NW25G32   29.65R WCI  16
PIPESTONE      CLOUDY    36  30  80 N26G37    29.70R
WINDOM           N/A     32  19  59 NW45G51   29.64R WCI  15
WORTHINGTON    CLOUDY    34  30  85 NW31G43   29.69R WCI  20
JACKSON        CLOUDY    32  28  86 MISG      29.65R
TRACY          CLOUDY    32  30  93 N30G43    29.70R WCI  18
SLAYTON        CLOUDY    33  30  88 NW22G38   29.68R WCI  21
$$
MNZ065>067-074>077-082>085-091>093-131800-
   South Central Minnesota

CITY           SKY/WX    TMP DP  RH WIND       PRES   REMARKS
MANKATO        CLOUDY    32  28  85 NW28G39   29.56R WCI  18
NEW ULM        CLOUDY    30  25  80 NW29G38   29.61R WCI  15
ST JAMES       CLOUDY    30  27  86 NW36G47   29.63R WCI  14
FAIRMONT       CLOUDY    31  27  85 NW40G48   29.61R WCI  14
GLENCOE        CLOUDY    32  29  86 NW14G23   29.58R WCI  22
FARIBAULT      CLOUDY    30  27  86 NW17G25   29.52R WCI  18
OWATONNA       CLOUDY    30  27  86 NW18G32   29.51R WCI  18
WASECA         CLOUDY    32  28  86 NW25G32   29.54R WCI  19
ALBERT LEA     CLOUDY    34  28  80 NW16G28   29.49R WCI  23
$$
MNZ078>079-086>088-094>096-131800-
   Southeast Minnesota

CITY           SKY/WX    TMP DP  RH WIND       PRES   REMARKS
ROCHESTER      CLOUDY    28  25  88 N30G40    29.43R WCI  12
RED WING       CLOUDY    25  18  74 NW6       29.49R WCI  18
STANTON        CLOUDY    28  24  83 NW20      29.51R WCI  15
DODGE CENTER   CLOUDY    28  25  86 NW26G35   29.46R WCI  13
WINONA         FLURRIES  30  27  86 NW15      29.43R WCI  19
AUSTIN         CLOUDY    30  27  86 NW24G32   29.47R WCI  16
PRESTON        CLOUDY    29  25  82 NW25G37   29.40R WCI  15
$$
ABBREVIATIONS USED IN REMARKS
   TC - TEMPERATURES IN CELSIUS
  WCI - WIND CHILL INDEX
   HX - HEAT INDEX
  VSB - VISIBILITY
$$




USA.gov is the U.S. government's official web portal to all federal, state and local government web resources and services.